PREDP SBBE-SBMQ

Flight info

Callsign PREDP
Flight time 0h 45m
Altitude 20000
Route PUDMI
Aircraft B350/M-SDFGRW/S

Departure

Time 2026-05-09 12:39
Airport Val de Cans/Júlio Cezar Ribeiro International Airport (SBBE)

Arrival

Time 2026-05-09 13:25
Airport Macapá - Alberto Alcolumbre International Airport (SBMQ)
Time Latitude Longitude Altitude Speed Heading
2026-05-09 12:29 -1.38699 -48.47519 57 ft 0 kts
2026-05-09 12:34 -1.38690 -48.47523 57 ft 4 kts 294°
2026-05-09 12:35 -1.38673 -48.47551 57 ft 3 kts
2026-05-09 12:35 -1.38644 -48.47548 57 ft 5 kts
2026-05-09 12:35 -1.38595 -48.47542 57 ft 8 kts
2026-05-09 12:35 -1.38532 -48.47536 57 ft 10 kts
2026-05-09 12:36 -1.38454 -48.47531 57 ft 11 kts
2026-05-09 12:36 -1.38404 -48.47573 57 ft 11 kts 274°
2026-05-09 12:36 -1.38404 -48.47645 57 ft 10 kts 239°
2026-05-09 12:36 -1.38479 -48.47661 57 ft 13 kts 184°
2026-05-09 12:37 -1.38590 -48.47669 57 ft 17 kts 184°
2026-05-09 12:37 -1.38664 -48.47727 57 ft 11 kts 262°
2026-05-09 12:37 -1.38666 -48.47804 57 ft 13 kts 268°
2026-05-09 12:37 -1.38668 -48.47916 57 ft 18 kts 269°
2026-05-09 12:38 -1.38671 -48.48032 57 ft 14 kts 268°
2026-05-09 12:38 -1.38673 -48.48128 57 ft 13 kts 268°
2026-05-09 12:38 -1.38675 -48.48221 57 ft 13 kts 270°
2026-05-09 12:38 -1.38675 -48.48310 57 ft 11 kts 269°
2026-05-09 12:39 -1.38643 -48.48329 57 ft 6 kts 47°
2026-05-09 12:39 -1.38451 -48.48137 57 ft 89 kts 46°
2026-05-09 12:39 -1.37856 -48.47530 226 ft 141 kts 47°
2026-05-09 12:39 -1.37132 -48.46783 809 ft 152 kts 48°
2026-05-09 12:40 -1.36407 -48.46125 1713 ft 137 kts 35°
2026-05-09 12:40 -1.35488 -48.45814 2226 ft 151 kts 12°
2026-05-09 12:40 -1.34420 -48.46020 2718 ft 168 kts 332°
2026-05-09 12:40 -1.33666 -48.46947 3266 ft 177 kts 300°
2026-05-09 12:41 -1.33021 -48.47988 3847 ft 177 kts 309°
2026-05-09 12:41 -1.32209 -48.48892 4390 ft 177 kts 324°
2026-05-09 12:41 -1.31240 -48.49672 4926 ft 181 kts 325°
2026-05-09 12:41 -1.30245 -48.50473 5531 ft 186 kts 325°
2026-05-09 12:42 -1.29237 -48.51286 6151 ft 188 kts 325°
2026-05-09 12:42 -1.28231 -48.52098 6789 ft 188 kts 324°
2026-05-09 12:42 -1.27212 -48.52921 7426 ft 188 kts 326°
2026-05-09 12:42 -1.26263 -48.53809 8022 ft 191 kts 308°
2026-05-09 12:43 -1.25574 -48.54955 8598 ft 191 kts 303°
2026-05-09 12:43 -1.24886 -48.56110 9157 ft 196 kts 304°
2026-05-09 12:43 -1.24181 -48.57264 9756 ft 198 kts 304°
2026-05-09 12:43 -1.23462 -48.58434 10384 ft 197 kts 306°
2026-05-09 12:44 -1.22742 -48.59597 10980 ft 197 kts 306°
2026-05-09 12:44 -1.22032 -48.60747 11542 ft 198 kts 306°
2026-05-09 12:44 -1.21306 -48.61923 12117 ft 201 kts 306°
2026-05-09 12:44 -1.20570 -48.63116 12738 ft 202 kts 306°
2026-05-09 12:45 -1.19830 -48.64315 13362 ft 202 kts 306°
2026-05-09 12:45 -1.19092 -48.65511 13953 ft 202 kts 307°
2026-05-09 12:45 -1.18350 -48.66714 14506 ft 203 kts 306°
2026-05-09 12:45 -1.17609 -48.67915 15032 ft 204 kts 307°
2026-05-09 12:46 -1.16865 -48.69120 15555 ft 204 kts 307°
2026-05-09 12:46 -1.16125 -48.70319 16048 ft 205 kts 307°
2026-05-09 12:46 -1.15375 -48.71534 16524 ft 206 kts 307°
2026-05-09 12:46 -1.14622 -48.72754 16989 ft 206 kts 307°
2026-05-09 12:47 -1.13870 -48.73972 17429 ft 207 kts 307°
2026-05-09 12:47 -1.13118 -48.75191 17840 ft 209 kts 307°
2026-05-09 12:47 -1.12343 -48.76445 18229 ft 212 kts 307°
2026-05-09 12:47 -1.11571 -48.77697 18603 ft 214 kts 307°
2026-05-09 12:48 -1.10786 -48.78970 18979 ft 215 kts 306°
2026-05-09 12:48 -1.09993 -48.80254 19348 ft 217 kts 306°
2026-05-09 12:48 -1.09200 -48.81540 19694 ft 219 kts 306°
2026-05-09 12:48 -1.08389 -48.82851 19920 ft 227 kts 306°
2026-05-09 12:49 -1.07531 -48.84238 19958 ft 245 kts 306°
2026-05-09 12:49 -1.06591 -48.85757 19967 ft 262 kts 305°
2026-05-09 12:49 -1.05609 -48.87343 19965 ft 277 kts 305°
2026-05-09 12:49 -1.04578 -48.89010 19962 ft 291 kts 305°
2026-05-09 12:50 -1.03484 -48.90787 19960 ft 302 kts 304°
2026-05-09 12:50 -1.02373 -48.92592 19958 ft 309 kts 304°
2026-05-09 12:50 -1.01238 -48.94432 19955 ft 314 kts 304°
2026-05-09 12:50 -1.00074 -48.96319 19952 ft 317 kts 304°
2026-05-09 12:51 -0.98909 -48.98206 19951 ft 319 kts 304°
2026-05-09 12:51 -0.97739 -49.00101 19952 ft 321 kts 304°
2026-05-09 12:51 -0.96555 -49.02020 19952 ft 323 kts 304°
2026-05-09 12:51 -0.95367 -49.03944 19951 ft 326 kts 304°
2026-05-09 12:52 -0.94177 -49.05872 19951 ft 328 kts 304°
2026-05-09 12:52 -0.92988 -49.07799 19948 ft 327 kts 304°
2026-05-09 12:52 -0.91793 -49.09735 19944 ft 326 kts 304°
2026-05-09 12:52 -0.90599 -49.11668 19949 ft 325 kts 304°
2026-05-09 12:53 -0.89401 -49.13609 19950 ft 324 kts 304°
2026-05-09 12:53 -0.88219 -49.15522 19951 ft 323 kts 304°
2026-05-09 12:53 -0.87042 -49.17430 19949 ft 322 kts 304°
2026-05-09 12:53 -0.85863 -49.19340 19949 ft 322 kts 304°
2026-05-09 12:54 -0.84681 -49.21254 19951 ft 321 kts 304°
2026-05-09 12:54 -0.83510 -49.23152 19952 ft 321 kts 304°
2026-05-09 12:54 -0.82334 -49.25055 19950 ft 321 kts 304°
2026-05-09 12:54 -0.81154 -49.26968 19951 ft 321 kts 304°
2026-05-09 12:55 -0.79988 -49.28855 19950 ft 321 kts 304°
2026-05-09 12:55 -0.78828 -49.30755 19953 ft 321 kts 303°
2026-05-09 12:55 -0.77670 -49.32666 19956 ft 320 kts 303°
2026-05-09 12:55 -0.76506 -49.34589 19954 ft 320 kts 304°
2026-05-09 12:56 -0.75372 -49.36460 19956 ft 320 kts 304°
2026-05-09 12:56 -0.74195 -49.38402 19959 ft 320 kts 303°
2026-05-09 12:56 -0.73038 -49.40312 19955 ft 320 kts 303°
2026-05-09 12:56 -0.71891 -49.42205 19957 ft 320 kts 304°
2026-05-09 12:57 -0.70729 -49.44122 19957 ft 320 kts 304°
2026-05-09 12:57 -0.69585 -49.46012 19957 ft 320 kts 303°
2026-05-09 12:57 -0.68425 -49.47926 19957 ft 320 kts 303°
2026-05-09 12:57 -0.67280 -49.49815 19960 ft 320 kts 304°
2026-05-09 12:58 -0.66119 -49.51732 19960 ft 320 kts 304°
2026-05-09 12:58 -0.64969 -49.53628 19963 ft 320 kts 303°
2026-05-09 12:58 -0.63810 -49.55538 19961 ft 320 kts 304°
2026-05-09 12:58 -0.62842 -49.57531 19944 ft 323 kts 290°
2026-05-09 12:59 -0.62196 -49.59668 19964 ft 323 kts 288°
2026-05-09 12:59 -0.61560 -49.61811 19967 ft 323 kts 289°
2026-05-09 12:59 -0.60918 -49.63965 19966 ft 323 kts 289°
2026-05-09 12:59 -0.60273 -49.66124 19964 ft 323 kts 289°
2026-05-09 13:00 -0.59616 -49.68320 19965 ft 323 kts 289°
2026-05-09 13:00 -0.58971 -49.70477 19967 ft 323 kts 289°
2026-05-09 13:00 -0.58334 -49.72606 19968 ft 323 kts 288°
2026-05-09 13:00 -0.57686 -49.74776 19962 ft 323 kts 289°
2026-05-09 13:01 -0.57046 -49.76914 19965 ft 322 kts 289°
2026-05-09 13:01 -0.56401 -49.79068 19966 ft 322 kts 288°
2026-05-09 13:01 -0.55765 -49.81194 19966 ft 321 kts 289°
2026-05-09 13:01 -0.55122 -49.83345 19965 ft 321 kts 289°
2026-05-09 13:02 -0.54482 -49.85483 19967 ft 321 kts 289°
2026-05-09 13:02 -0.53846 -49.87607 19970 ft 321 kts 289°
2026-05-09 13:02 -0.53205 -49.89746 19968 ft 321 kts 289°
2026-05-09 13:02 -0.52561 -49.91898 19965 ft 321 kts 289°
2026-05-09 13:03 -0.51928 -49.94014 19968 ft 321 kts 289°
2026-05-09 13:03 -0.51279 -49.96181 19967 ft 321 kts 289°
2026-05-09 13:03 -0.50645 -49.98300 19968 ft 320 kts 289°
2026-05-09 13:03 -0.50001 -50.00452 19967 ft 320 kts 289°
2026-05-09 13:04 -0.49369 -50.02564 19967 ft 320 kts 289°
2026-05-09 13:04 -0.48727 -50.04711 19971 ft 320 kts 289°
2026-05-09 13:04 -0.48089 -50.06844 19968 ft 320 kts 289°
2026-05-09 13:04 -0.47443 -50.09001 19966 ft 321 kts 289°
2026-05-09 13:05 -0.46803 -50.11141 19879 ft 323 kts 289°
2026-05-09 13:05 -0.46158 -50.13295 19506 ft 321 kts 289°
2026-05-09 13:05 -0.45527 -50.15400 19163 ft 318 kts 289°
2026-05-09 13:05 -0.44889 -50.17533 18812 ft 315 kts 289°
2026-05-09 13:06 -0.44264 -50.19624 18465 ft 313 kts 289°
2026-05-09 13:06 -0.43646 -50.21686 18120 ft 311 kts 289°
2026-05-09 13:06 -0.43030 -50.23748 17773 ft 309 kts 289°
2026-05-09 13:06 -0.42414 -50.25803 17424 ft 308 kts 289°
2026-05-09 13:07 -0.41803 -50.27845 17077 ft 307 kts 290°
2026-05-09 13:07 -0.41189 -50.29897 16728 ft 306 kts 289°
2026-05-09 13:07 -0.40580 -50.31934 16375 ft 305 kts 289°
2026-05-09 13:07 -0.39968 -50.33979 16025 ft 305 kts 289°
2026-05-09 13:08 -0.39358 -50.36022 15674 ft 305 kts 289°
2026-05-09 13:08 -0.38754 -50.38043 15324 ft 304 kts 289°
2026-05-09 13:08 -0.38147 -50.40074 14975 ft 304 kts 289°
2026-05-09 13:08 -0.37539 -50.42105 14630 ft 304 kts 289°
2026-05-09 13:09 -0.36937 -50.44115 14288 ft 304 kts 289°
2026-05-09 13:09 -0.36333 -50.46136 13952 ft 303 kts 289°
2026-05-09 13:09 -0.35725 -50.48166 13697 ft 299 kts 289°
2026-05-09 13:09 -0.35132 -50.50149 13437 ft 297 kts 288°
2026-05-09 13:10 -0.34542 -50.52121 13168 ft 295 kts 289°
2026-05-09 13:10 -0.33951 -50.54095 12910 ft 294 kts 289°
2026-05-09 13:10 -0.33364 -50.56055 12654 ft 293 kts 289°
2026-05-09 13:10 -0.32778 -50.58012 12394 ft 292 kts 288°
2026-05-09 13:11 -0.32194 -50.59964 12135 ft 292 kts 289°
2026-05-09 13:11 -0.31615 -50.61901 11880 ft 292 kts 289°
2026-05-09 13:11 -0.31034 -50.63841 11615 ft 289 kts 289°
2026-05-09 13:11 -0.30455 -50.65776 11350 ft 286 kts 288°
2026-05-09 13:12 -0.29881 -50.67693 11071 ft 283 kts 288°
2026-05-09 13:12 -0.29315 -50.69583 10801 ft 281 kts 288°
2026-05-09 13:12 -0.28758 -50.71446 10537 ft 279 kts 288°
2026-05-09 13:12 -0.28208 -50.73286 10269 ft 277 kts 288°
2026-05-09 13:13 -0.27651 -50.75150 9985 ft 277 kts 288°
2026-05-09 13:13 -0.27100 -50.76990 9703 ft 277 kts 288°
2026-05-09 13:13 -0.26545 -50.78846 9404 ft 276 kts 288°
2026-05-09 13:13 -0.25999 -50.80670 9117 ft 276 kts 288°
2026-05-09 13:14 -0.25441 -50.82533 8831 ft 276 kts 288°
2026-05-09 13:14 -0.24892 -50.84367 8547 ft 276 kts 288°
2026-05-09 13:16 -0.21048 -50.97211 6538 ft 275 kts 287°
2026-05-09 13:16 -0.20500 -50.99041 6245 ft 274 kts 287°
2026-05-09 13:16 -0.19953 -51.00869 5959 ft 274 kts 287°
2026-05-09 13:16 -0.19406 -51.02696 5662 ft 273 kts 287°
2026-05-09 13:17 -0.18865 -51.04504 5370 ft 273 kts 288°
2026-05-09 13:17 -0.18324 -51.06312 5082 ft 272 kts 288°
2026-05-09 13:17 -0.17779 -51.08131 4788 ft 271 kts 288°
2026-05-09 13:17 -0.17243 -51.09921 4498 ft 270 kts 288°
2026-05-09 13:18 -0.16707 -51.11715 4216 ft 269 kts 288°
2026-05-09 13:18 -0.16168 -51.13515 3948 ft 267 kts 288°
2026-05-09 13:18 -0.15643 -51.15267 3664 ft 260 kts 288°
2026-05-09 13:18 -0.15137 -51.16956 3386 ft 253 kts 288°
2026-05-09 13:19 -0.14593 -51.18603 3097 ft 246 kts 297°
2026-05-09 13:19 -0.13504 -51.19852 2843 ft 232 kts 330°
2026-05-09 13:19 -0.12052 -51.20370 2638 ft 213 kts 353°
2026-05-09 13:19 -0.10632 -51.20647 2460 ft 202 kts 352°
2026-05-09 13:20 -0.09281 -51.20936 2372 ft 197 kts 352°
2026-05-09 13:20 -0.07936 -51.21231 2298 ft 197 kts 351°
2026-05-09 13:20 -0.06590 -51.21530 2244 ft 198 kts 351°
2026-05-09 13:20 -0.05219 -51.21753 2184 ft 196 kts
2026-05-09 13:21 -0.03977 -51.21270 2109 ft 190 kts 43°
2026-05-09 13:21 -0.03221 -51.20205 2048 ft 190 kts 62°
2026-05-09 13:21 -0.02544 -51.19054 1988 ft 191 kts 59°
2026-05-09 13:21 -0.01845 -51.17937 1928 ft 192 kts 59°
2026-05-09 13:22 -0.01118 -51.16802 1869 ft 192 kts 58°
2026-05-09 13:22 -0.00388 -51.15664 1720 ft 196 kts 58°
2026-05-09 13:22 0.00300 -51.14594 1519 ft 169 kts 58°
2026-05-09 13:23 0.02423 -51.11308 826 ft 134 kts 57°
2026-05-09 13:23 0.02923 -51.10537 670 ft 129 kts 58°
2026-05-09 13:24 0.03388 -51.09796 521 ft 126 kts 57°
2026-05-09 13:24 0.03864 -51.09069 356 ft 125 kts 55°
2026-05-09 13:24 0.04347 -51.08332 156 ft 123 kts 57°
2026-05-09 13:24 0.04786 -51.07646 59 ft 107 kts 56°
2026-05-09 13:25 0.05064 -51.07212 57 ft 20 kts 56°
2026-05-09 13:25 0.05117 -51.07129 57 ft 9 kts 75°
2026-05-09 13:25 0.05048 -51.07061 56 ft 7 kts 109°